Terminal Aerodrome Forecast
Issued by NWS

Home | Current Version | Previous Version | Text Only | Print | Product List | Glossary On
Versions: 1 2 3 4 5 6 7 8 9 10 11 12 13 14 15 16 17 18 19 20 21 22 23 24 25 26
000
FTUS41 KBUF 291100
TAFIAG
TAF
KIAG 291128Z 2912/3012 13005KT P6SM BKN250
     FM300200 13004KT P6SM BKN150
     FM300300 15005KT P6SM BKN100
     FM300800 18008KT P6SM BKN070=

USA.gov is the U.S. government's official web portal to all federal, state and local government web resources and services.